This is the latest recevied weather packets stored in our database for station/object SP6PWT-13. If no packets are shown the sender has not sent any weather packets the latest 10 day(s).
| Time | Temp. | Humidity | Pressure | Rain* | Wind** | Luminosity | Snow |
|---|---|---|---|---|---|---|---|
| 1777886237 | 22.22° C | 38% | 997.4 hPa | 0 mm | - | 592 W/m² | - |
| 1777885936 | 22.78° C | 38% | 997.4 hPa | 0 mm | - | 577 W/m² | - |
| 1777885635 | 22.78° C | 37% | 997.6 hPa | 0 mm | - | 567 W/m² | - |
| 1777885334 | 22.22° C | 38% | 997.5 hPa | 0 mm | - | 567 W/m² | - |
| 1777885034 | 22.22° C | 38% | 997.7 hPa | 0 mm | - | 450 W/m² | - |
| 1777884734 | 22.22° C | 39% | 997.6 hPa | 0 mm | - | 390 W/m² | - |
| 1777884432 | 22.22° C | 39% | 997.7 hPa | 0 mm | - | 368 W/m² | - |
| 1777884132 | 21.67° C | 39% | 997.7 hPa | 0 mm | - | 372 W/m² | - |
| 1777883831 | 21.67° C | 39% | 997.7 hPa | 0 mm | - | 437 W/m² | - |
| 1777883531 | 21.67° C | 39% | 997.6 hPa | 0 mm | - | 349 W/m² | - |
| 1777883231 | 21.67° C | 40% | 997.7 hPa | 0 mm | - | 304 W/m² | - |
| 1777882930 | 21.67° C | 41% | 997.7 hPa | 0 mm | - | 381 W/m² | - |
| 1777882629 | 21.11° C | 41% | 997.8 hPa | 0 mm | - | 350 W/m² | - |
| 1777882329 | 21.11° C | 41% | 997.8 hPa | 0 mm | - | 327 W/m² | - |
| 1777882029 | 21.11° C | 42% | 997.7 hPa | 0 mm | - | 263 W/m² | - |
| 1777881728 | 21.11° C | 41% | 997.6 hPa | 0 mm | - | 259 W/m² | - |
| 1777881428 | 21.11° C | 41% | 997.6 hPa | 0 mm | - | 271 W/m² | - |
| 1777881128 | 21.11° C | 41% | 997.6 hPa | 0 mm | - | 227 W/m² | - |
| 1777880827 | 21.11° C | 42% | 997.6 hPa | 0 mm | - | 202 W/m² | - |
| 1777880527 | 21.11° C | 41% | 997.5 hPa | 0 mm | - | 204 W/m² | - |
| 1777880226 | 21.11° C | 41% | 997.5 hPa | 0 mm | - | 213 W/m² | - |
| 1777879925 | 21.11° C | 42% | 997.7 hPa | 0 mm | - | 223 W/m² | - |
| 1777879624 | 20.56° C | 44% | 997.6 hPa | 0 mm | - | 239 W/m² | - |
| 1777879323 | 20.56° C | 43% | 997.5 hPa | 0 mm | - | 241 W/m² | - |
| 1777879022 | 20° C | 44% | 997.6 hPa | 0 mm | - | 228 W/m² | - |
* Rain latest hour (hover to see other rain measurements)
** Current wind speed in m/s (hover to see current wind gust speed)